Location: site
(53.0000°N, 23.0500°E)
Time: 22:33:00
(UTC+01:00)

SAOCOM 1-A - Pass Details

Date: 23 January 2020
Orbit: 621 x 623 km, 97.9° (Epoch: 24 February)

Event Time Altitude Azimuth Distance (km) Brightness Sun altitude
Rises 04:06:00 0° 147° (SSE) 2,896 ? -29.5°
Reaches altitude 10° 04:08:14 10° 142° (SE) 1,994 ? -29.2°
Enters shadow 04:12:24 48° 68° (ENE) 819 ? -28.5°
